When you browse on this site, cookies collect data to enhance your experience and personalize the content and advertising you see.
Visit our Privacy Policy to learn more. By continuing to use the site, you agree to this use of cookies and data.
  • In Latvia
  • List of Countries
  • For 7 days
  • Water Temperature
  • Satellite Maps
  • Weather Map
  • Weather Widgets
  • user-avatar
    Login

    Hourly Weather Kerns

    Today, 26 May, Sunday

    Time Temperature Precipitation Wind Pressure Humidity
    00:00 +21°C° 0 mm 3 mps 761 mmHg 95%
    01:00 +21°C° 0 mm 3 mps 761 mmHg 95%
    02:00 +21°C° 0 mm 3 mps 761 mmHg 95%
    03:00 +21°C° 0 mm 3 mps 761 mmHg 94%
    04:00 +21°C° 0 mm 3 mps 760 mmHg 94%
    05:00 +21°C° 0 mm 3 mps 761 mmHg 94%
    06:00 +21°C° 0 mm 3 mps 761 mmHg 94%
    07:00 +21°C° 0 mm 3 mps 761 mmHg 93%
    08:00 +24°C° 0 mm 3 mps 761 mmHg 85%
    09:00 +26°C° 0 mm 3 mps 761 mmHg 77%
    10:00 +28°C° 0 mm 4 mps 761 mmHg 68%
    11:00 +29°C° 0 mm 4 mps 761 mmHg 67%
    12:00 +29°C° 0 mm 4 mps 760 mmHg 66%
    13:00 +30°C° 0 mm 4 mps 760 mmHg 64%
    14:00 +29°C° 0.1 mm 3 mps 760 mmHg 68%
    15:00 +28°C° 0.1 mm 3 mps 759 mmHg 72%
    16:00 +27°C° 0 mm 3 mps 759 mmHg 77%
    17:00 +26°C° 0 mm 3 mps 760 mmHg 83%
    18:00 +25°C° 0 mm 3 mps 760 mmHg 89%
    19:00 +23°C° 0 mm 2 mps 760 mmHg 95%
    20:00 +22°C° 0 mm 3 mps 760 mmHg 95%
    21:00 +22°C° 0 mm 3 mps 761 mmHg 95%
    22:00 +22°C° 0 mm 3 mps 761 mmHg 95%
    23:00 +22°C° 0 mm 3 mps 761 mmHg 95%

    Tomorrow, 27 May, Monday

    Time Temperature Precipitation Wind Pressure Humidity
    00:00 +22°C° 0 mm 3 mps 761 mmHg 95%
    01:00 +21°C° 0 mm 3 mps 761 mmHg 95%
    02:00 +21°C° 0 mm 3 mps 761 mmHg 96%
    03:00 +21°C° 0 mm 3 mps 760 mmHg 96%
    04:00 +21°C° 0 mm 3 mps 760 mmHg 96%
    05:00 +22°C° 0.1 mm 3 mps 760 mmHg 95%
    06:00 +22°C° 0.1 mm 3 mps 761 mmHg 95%
    07:00 +22°C° 0.1 mm 3 mps 761 mmHg 95%
    08:00 +24°C° 0.1 mm 3 mps 761 mmHg 87%
    09:00 +26°C° 0.1 mm 3 mps 761 mmHg 80%
    10:00 +27°C° 0.1 mm 4 mps 761 mmHg 73%
    11:00 +28°C° 0.1 mm 4 mps 761 mmHg 69%
    12:00 +29°C° 0.1 mm 4 mps 760 mmHg 66%
    13:00 +29°C° 0.1 mm 4 mps 760 mmHg 62%
    14:00 +29°C° 0 mm 4 mps 760 mmHg 64%
    15:00 +28°C° 0 mm 4 mps 759 mmHg 65%
    16:00 +28°C° 0 mm 4 mps 759 mmHg 67%
    17:00 +26°C° 0 mm 3 mps 760 mmHg 75%
    18:00 +25°C° 0 mm 3 mps 760 mmHg 84%
    19:00 +22°C° 0 mm 3 mps 761 mmHg 92%
    20:00 +22°C° 0 mm 3 mps 761 mmHg 93%
    21:00 +21°C° 0 mm 3 mps 761 mmHg 94%
    22:00 +21°C° 0 mm 3 mps 761 mmHg 95%
    23:00 +21°C° 0 mm 3 mps 761 mmHg 95%

    Day after tomorrow, 28 May, Tuesday

    Time Temperature Precipitation Wind Pressure Humidity
    00:00 +21°C° 0 mm 3 mps 761 mmHg 96%
    01:00 +21°C° 0 mm 3 mps 761 mmHg 96%
    02:00 +21°C° 0 mm 3 mps 761 mmHg 96%
    03:00 +21°C° 0 mm 3 mps 760 mmHg 96%
    04:00 +21°C° 0 mm 3 mps 760 mmHg 96%
    05:00 +21°C° 0 mm 3 mps 760 mmHg 96%
    06:00 +21°C° 0 mm 3 mps 761 mmHg 96%
    07:00 +21°C° 0 mm 3 mps 761 mmHg 95%
    08:00 +24°C° 0 mm 3 mps 761 mmHg 87%
    09:00 +26°C° 0 mm 4 mps 762 mmHg 79%
    10:00 +27°C° 0 mm 4 mps 762 mmHg 71%
    11:00 +28°C° 0 mm 4 mps 761 mmHg 67%
    12:00 +29°C° 0 mm 4 mps 761 mmHg 63%
    13:00 +29°C° 0 mm 4 mps 760 mmHg 59%
    14:00 +29°C° 0 mm 4 mps 760 mmHg 61%
    15:00 +28°C° 0 mm 4 mps 760 mmHg 64%
    16:00 +28°C° 0 mm 4 mps 759 mmHg 66%
    17:00 +26°C° 0 mm 4 mps 760 mmHg 75%
    18:00 +25°C° 0 mm 4 mps 760 mmHg 83%
    19:00 +22°C° 0 mm 3 mps 761 mmHg 91%
    20:00 +22°C° 0 mm 3 mps 761 mmHg 92%
    21:00 +21°C° 0 mm 3 mps 761 mmHg 93%
    22:00 +21°C° 0 mm 3 mps 762 mmHg 94%
    23:00 +21°C° 0 mm 3 mps 761 mmHg 94%

    29 May, Wednesday

    Time Temperature Precipitation Wind Pressure Humidity
    00:00 +21°C° 0 mm 3 mps 761 mmHg 95%
    01:00 +21°C° 0 mm 3 mps 761 mmHg 95%
    02:00 +21°C° 0 mm 3 mps 761 mmHg 95%
    03:00 +21°C° 0 mm 3 mps 760 mmHg 95%
    04:00 +21°C° 0 mm 3 mps 760 mmHg 95%
    05:00 +21°C° 0 mm 3 mps 761 mmHg 95%
    06:00 +21°C° 0 mm 3 mps 761 mmHg 95%
    07:00 +21°C° 0 mm 3 mps 761 mmHg 95%
    08:00 +24°C° 0 mm 3 mps 761 mmHg 88%
    09:00 +25°C° 0 mm 3 mps 762 mmHg 82%
    10:00 +27°C° 0 mm 3 mps 762 mmHg 75%
    11:00 +27°C° 0 mm 3 mps 761 mmHg 71%
    12:00 +28°C° 0 mm 3 mps 761 mmHg 67%
    13:00 +29°C° 0 mm 3 mps 760 mmHg 63%
    14:00 +29°C° 0 mm 3 mps 760 mmHg 65%
    15:00 +28°C° 0 mm 3 mps 760 mmHg 67%
    16:00 +28°C° 0 mm 3 mps 759 mmHg 69%
    17:00 +26°C° 0 mm 3 mps 760 mmHg 77%
    18:00 +25°C° 0 mm 3 mps 760 mmHg 85%
    19:00 +22°C° 0 mm 3 mps 761 mmHg 93%
    20:00 +22°C° 0 mm 3 mps 761 mmHg 94%
    21:00 +23°C° 0 mm 2 mps 761 mmHg 95%
    22:00 +23°C° 0 mm 2 mps 762 mmHg 96%
    23:00 +23°C° 0 mm 2 mps 762 mmHg 96%

    30 May, Thursday

    Time Temperature Precipitation Wind Pressure Humidity
    00:00 +21°C° 0 mm 2 mps 761 mmHg 96%
    01:00 +21°C° 0 mm 2 mps 761 mmHg 96%
    02:00 +21°C° 0 mm 2 mps 760 mmHg 96%
    03:00 +21°C° 0 mm 2 mps 760 mmHg 96%
    04:00 +21°C° 0 mm 3 mps 760 mmHg 97%
    05:00 +21°C° 0 mm 3 mps 760 mmHg 97%
    06:00 +21°C° 0 mm 3 mps 761 mmHg 97%
    07:00 +21°C° 0 mm 3 mps 761 mmHg 97%
    08:00 +24°C° 0 mm 3 mps 761 mmHg 90%
    09:00 +25°C° 0 mm 3 mps 762 mmHg 83%
    10:00 +27°C° 0 mm 3 mps 762 mmHg 77%
    11:00 +28°C° 0.1 mm 3 mps 761 mmHg 74%
    12:00 +28°C° 0.1 mm 3 mps 761 mmHg 71%
    13:00 +29°C° 0.1 mm 3 mps 760 mmHg 69%
    14:00 +29°C° 0.1 mm 3 mps 760 mmHg 70%
    15:00 +28°C° 0.1 mm 4 mps 760 mmHg 72%
    16:00 +28°C° 0.1 mm 4 mps 760 mmHg 73%
    17:00 +27°C° 0 mm 3 mps 760 mmHg 79%
    18:00 +26°C° 0 mm 3 mps 761 mmHg 85%
    19:00 +24°C° 0 mm 3 mps 761 mmHg 91%
    20:00 +24°C° 0.1 mm 3 mps 761 mmHg 92%
    21:00 +24°C° 0.1 mm 3 mps 762 mmHg 93%
    22:00 +24°C° 0.1 mm 3 mps 762 mmHg 94%
    23:00 +24°C° 0.2 mm 3 mps 762 mmHg 95%

    31 May, Friday

    Time Temperature Precipitation Wind Pressure Humidity
    00:00 +24°C° 0.2 mm 3 mps 761 mmHg 96%
    01:00 +24°C° 0.2 mm 3 mps 761 mmHg 97%
    02:00 +22°C° 0.9 mm 3 mps 761 mmHg 97%
    03:00 +22°C° 0.9 mm 3 mps 760 mmHg 98%
    04:00 +23°C° 0.9 mm 2 mps 760 mmHg 98%
    05:00 +23°C° 0.8 mm 2 mps 761 mmHg 98%
    06:00 +23°C° 0.8 mm 2 mps 761 mmHg 98%
    07:00 +23°C° 0.8 mm 2 mps 762 mmHg 98%
    08:00 +23°C° 0.6 mm 2 mps 762 mmHg 97%
    09:00 +24°C° 0.6 mm 2 mps 762 mmHg 97%
    10:00 +24°C° 0.6 mm 2 mps 762 mmHg 97%
    11:00 +24°C° 0.9 mm 2 mps 762 mmHg 96%
    12:00 +24°C° 0.9 mm 2 mps 761 mmHg 96%
    13:00 +24°C° 0.9 mm 2 mps 761 mmHg 96%
    14:00 +24°C° 0.4 mm 2 mps 760 mmHg 95%
    15:00 +24°C° 0.4 mm 2 mps 760 mmHg 95%
    16:00 +24°C° 0.4 mm 2 mps 760 mmHg 95%
    17:00 +24°C° 0.2 mm 2 mps 760 mmHg 96%
    18:00 +23°C° 0.2 mm 2 mps 761 mmHg 97%
    19:00 +23°C° 0.2 mm 2 mps 761 mmHg 97%
    20:00 +23°C° 0.3 mm 2 mps 762 mmHg 98%
    21:00 +23°C° 0.3 mm 2 mps 762 mmHg 98%
    22:00 +23°C° 0.3 mm 2 mps 762 mmHg 98%
    23:00 +23°C° 0.3 mm 2 mps 762 mmHg 98%
    Show more